Regional Weather Roundup
Issued by NWS

Home | Current Version | Previous Version | Graphics & Text | Print | Product List | Glossary On
Versions: 1 2 3 4 5 6 7 8 9 10 11 12 13 14 15 16 17 18 19 20 21 22 23 24 25 26 27 28 29 30 31 32 33 34 35 36 37 38 39 40 41 42 43 44 45 46 47 48 49 50
000
ASUS45 KBOU 291507
RWRCO

WEATHER ROUNDUP FOR COLORADO
NATIONAL WEATHER SERVICE DENVER/BOULDER CO
900 AM MDT MON SEP 29 2014

NOTE: "FAIR" INDICATES FEW OR NO CLOUDS BELOW 12000 FEET WITH NO
SIGNIFICANT WEATHER AND/OR OBSTRUCTIONS TO VISIBILITY.

COZ001>005-013-030-031-291600-
...NORTHWEST COLORADO...

CITY           SKY/WX    TMP DP  RH WIND       PRES   REMARKS
CRAIG          MOSUNNY   49  44  83 CALM      30.07S
HAYDEN         MOSUNNY   45  39  81 E8        30.08S
MEEKER         PTSUNNY   47  42  83 NE5       30.07S
MOUNT WERNER   NOT AVBL
STEAMBOAT SPGS NOT AVBL
WALDEN         MOSUNNY   45  39  81 S6        30.13F
$$

COZ006>008-011-291600-
...WEST CENTRAL VALLEYS...

CITY           SKY/WX    TMP DP  RH WIND       PRES   REMARKS
GRAND JUNCTION CLOUDY    52  48  86 E9        30.01F
MONTROSE       PTSUNNY   50  48  93 CALM      30.07F
EAGLE          PTSUNNY   48  48 100 CALM      30.12F
RIFLE          PTSUNNY   49  46  90 CALM      30.05F
DELTA          RAIN      54  49  85 CALM      30.05S
NUCLA          MOSUNNY   48  46  93 NW3       30.10F
$$

COZ017>023-064>068-291600-
...SOUTHWEST COLORADO...

CITY           SKY/WX    TMP DP  RH WIND       PRES   REMARKS
DURANGO        CLOUDY    51  49  92 CALM      30.13S
CORTEZ         SUNNY     55  50  83 CALM      30.07F
PAGOSA SPRINGS LGT RAIN  49  48  99 CALM      30.19S
TELLURIDE      PTSUNNY  N/A N/A N/A CALM      30.18F
WOLF CREEK PAS NOT AVBL
$$

COZ009-010-012-014-032>034-037-058>063-291600-
...CENTRAL COLORADO...

CITY           SKY/WX    TMP DP  RH WIND       PRES   REMARKS
ASPEN          MOSUNNY   45  40  82 CALM      30.13S
BUENA VISTA    CLOUDY    50  44  79 CALM      30.16F
COPPER MTN     SUNNY     45  32  61 SE20      30.31F
BERTHOUD PASS  FAIR      34  32  93 MISG      30.36S
COTTONWOOD PAS CLOUDY    46  41  81 SE3       30.24S
GUNNISON       CLOUDY    45  39  81 CALM      30.17F
KREMMLING      SUNNY     50  41  71 CALM      30.14F
LEADVILLE      NOT AVBL
SALIDA         CLOUDY    55  47  74 CALM      30.22R
SUNLIGHT       MOSUNNY   39  37  93 CALM      30.26S
WILKERSON PASS NOT AVBL
$$

COZ069>075-291600-
...SAN LUIS VALLEY/SANGRE DE CRISTO MOUNTAINS...

CITY           SKY/WX    TMP DP  RH WIND       PRES   REMARKS
ALAMOSA        SUNNY     52  48  86 SE3       30.15F
LA VETA PASS   NOT AVBL
SAGUACHE       MOSUNNY   50  46  87 CALM      30.17F
$$

COZ035-036-038>040-291600-
...NORTHERN COLORADO FRONT RANGE...

CITY           SKY/WX    TMP DP  RH WIND       PRES   REMARKS
DENVER INTL AP CLOUDY    56  50  80 CALM      30.06F
DMNS CITY PARK   N/A     57  50  77 NE1       30.06S
AURORA         PTSUNNY   54  52  94 CALM      30.09R
FRONT RANGE AP NOT AVBL
ERIE MUNI ARPT NOT AVBL
BOULDER MUN AP CLOUDY    57  52  82 CALM      30.06S
CENTENNIAL     PTSUNNY   55  50  83 CALM      30.08S
BROOMFIELD     CLOUDY    57  52  82 CALM      30.08R
FORT COLLINS   MOSUNNY   55  50  82 SE6       30.07S
LONGMONT       NOT AVBL
$$

COZ041-046-047-076>085-087-088-291600-
...PIKES PEAK/PALMER DIVIDE AND SOUTHERN FOOTHILLS...

CITY           SKY/WX    TMP DP  RH WIND       PRES   REMARKS
COLO. SPRINGS  MOSUNNY   61  50  67 VRB3      30.08F
A. F. ACADEMY  MOSUNNY   57  48  72 N7        30.09F
ELLICOTT       NOT AVBL
FALCON         MOSUNNY   61  48  61 CALM      30.12S
FORT CARSON    MOSUNNY   61  51  67 VRB2      30.05F
LIMON          CLOUDY    54  50  86 N8        30.06F
MONUMENT HILL  CLOUDY    50  46  87 NW5       30.12S FOG
TRINIDAD       SUNNY     66  51  58 SW6       30.06F
$$

COZ042>045-048>051-090-091-291600-
...NORTHEAST COLORADO...

CITY           SKY/WX    TMP DP  RH WIND       PRES   REMARKS
GREELEY ARPT   MOSUNNY   57  45  62 N3        30.05F
AKRON          CLOUDY    56  54  93 SW9       30.03R
BURLINGTON     SUNNY     67  54  63 S16G23    30.02S
WRAY           MOSUNNY   66  54  66 S12       30.01S
STERLING       NOT AVBL
HOLYOKE        NOT AVBL
FORT MORGAN    PTSUNNY   59  52  77 N7        30.03F
$$

COZ086-089-092>099-291600-
...SOUTHEAST COLORADO...

CITY           SKY/WX    TMP DP  RH WIND       PRES   REMARKS
PUEBLO         SUNNY     64  52  64 E5        30.00F
LA JUNTA       SUNNY     72  53  51 S12       29.98S
LAMAR          SUNNY     70  55  59 S21       29.98F
SPRINGFIELD      N/A     64  55  72 S25G33    30.05S
$$



USA.gov is the U.S. government's official web portal to all federal, state and local government web resources and services.